Regional Weather Roundup
Issued by NWS

Home | Current Version | Previous Version | Graphics & Text | Print | Product List | Glossary On
Versions: 1 2 3 4 5 6 7 8 9 10 11 12 13 14 15 16 17 18 19 20 21 22 23 24 25 26 27 28 29 30 31 32 33 34 35 36 37 38 39 40 41 42 43 44 45 46 47 48 49 50
894
ASUS43 KTOP 082308
RWRKS

WEATHER ROUNDUP FOR KANSAS
NATIONAL WEATHER SERVICE GOODLAND KS
500 PM CST THU DEC 08 2016

NOTE:  "FAIR" INDICATES FEW OR NO CLOUDS BELOW 12,000 FEET WITH NO
SIGNIFICANT WEATHER AND/OR OBSTRUCTIONS TO VISIBILITY.

KSZ001>006-013>018-027>032-041>047-090000-
NORTHWEST KANSAS

CITY           SKY/WX    TMP DP  RH WIND       PRES   REMARKS
GOODLAND       CLEAR     15   4  61 SE6       30.49S
HAYS           CLEAR     21   6  52 N7        30.62S
HILL CITY      CLEAR     20   2  45 N5        30.61S
RUSSELL        CLEAR     22   6  50 N7        30.62R
$$

KSZ061>065-074>080-084>089-090000-
SOUTHWEST KANSAS

CITY           SKY/WX    TMP DP  RH WIND       PRES   REMARKS
DODGE CITY     CLEAR     20   4  50 NE6       30.58F
ELKHART          N/A     22  -4  32 SE10        N/A  WCI  11
GARDEN CITY    CLOUDY    21   4  47 NE3       30.55F
GREAT BEND     CLEAR     23   7  50 N7        30.62F
LIBERAL        CLOUDY    25   1  36 CALM      30.55F
PRATT          CLEAR     22   1  40 N8        30.61F
$$

KSZ066>073-081>083-090>101-090000-
SOUTHEAST KANSAS

CITY           SKY/WX    TMP DP  RH WIND       PRES   REMARKS
CHANUTE        CLEAR     26  13  57 NW9       30.64R
COFFEYVILLE    CLEAR     29  11  47 NW8       30.66R
HUTCHINSON     CLEAR     26   6  42 N8        30.64S
MEDICINE LODGE   N/A     26   2  35 N8        30.63S
NEWTON         CLEAR     23  11  60 N9        30.64S
PARSONS        CLEAR     27  11  51 N8        30.66R
WICHITA INTL   PTCLDY    27   7  42 N9        30.65R
WICHITA JABRA  CLEAR     23   8  52 N8        30.64S
WICHITA MCCONL CLEAR     26   8  45 N9        30.64S
WINFIELD       CLEAR     27   7  42 N8        30.66S
$$

KSZ007>012-019>026-033>040-048>060-102>105-090000-
NORTHEAST KANSAS

CITY           SKY/WX    TMP DP  RH WIND       PRES   REMARKS
CONCORDIA      CLEAR     23   9  55 NW8       30.63S
EMPORIA        CLEAR     23  10  57 NW12      30.64R WCI  12
LAWRENCE       CLEAR     22  12  65 NW9       30.64S
MANHATTAN      CLEAR     26   9  48 VRB3      30.65S
MARYSVILLE     CLEAR     23  10  58 NW8       30.63S
OLATHE IND     CLEAR     23  11  60 NW7       30.62R
OLATHE EXE     CLEAR     23  10  57 NW13      30.61R WCI  11
SALINA         CLEAR     24  10  55 NW8       30.67S
TOPEKA BILLARD CLEAR     24  11  57 NW9       30.65R
TOPEKA FORBES  CLEAR     24  11  57 NW10      30.63R WCI  14
$$




USA.gov is the U.S. government's official web portal to all federal, state and local government web resources and services.